TimeEST,TemperatureF,Dew PointF,Humidity,Sea Level PressureIn,VisibilityMPH,Wind Direction,Wind SpeedMPH,Gust SpeedMPH,PrecipitationIn,Events,Conditions,WindDirDegrees,DateUTC
12:25 AM,50.0,46.0,86,29.60,10.0,WSW,13.8,-,0.00,Rain,Light Rain,240,2013-01-31 05:25:00
12:54 AM,50.0,46.0,86,29.58,10.0,WSW,17.3,28.8,0.01,,Overcast,240,2013-01-31 05:54:00
1:12 AM,50.0,46.0,86,29.60,10.0,WSW,12.7,20.7,N/A,,Overcast,240,2013-01-31 06:12:00
1:54 AM,48.9,45.0,86,29.59,10.0,WSW,21.9,31.1,N/A,,Mostly Cloudy,250,2013-01-31 06:54:00
2:54 AM,48.0,42.1,80,29.62,10.0,WSW,17.3,32.2,N/A,,Overcast,250,2013-01-31 07:54:00
3:16 AM,46.9,39.9,77,29.66,10.0,WSW,15.0,26.5,N/A,,Mostly Cloudy,250,2013-01-31 08:16:00
3:54 AM,45.0,37.0,74,29.67,10.0,WSW,25.3,34.5,N/A,,Clear,250,2013-01-31 08:54:00
4:54 AM,43.0,35.1,74,29.72,10.0,West,16.1,32.2,N/A,,Clear,260,2013-01-31 09:54:00
5:54 AM,42.1,34.0,73,29.76,10.0,West,12.7,21.9,N/A,,Scattered Clouds,270,2013-01-31 10:54:00
6:54 AM,39.9,33.1,77,29.81,10.0,West,6.9,-,N/A,,Clear,270,2013-01-31 11:54:00
7:54 AM,39.0,32.0,76,29.88,10.0,West,10.4,-,N/A,,Clear,270,2013-01-31 12:54:00
8:54 AM,39.9,28.9,65,29.92,10.0,West,10.4,-,N/A,,Clear,280,2013-01-31 13:54:00
9:54 AM,43.0,27.0,53,29.93,10.0,West,8.1,-,N/A,,Clear,260,2013-01-31 14:54:00
10:54 AM,44.1,26.1,49,29.96,10.0,WSW,12.7,19.6,N/A,,Clear,240,2013-01-31 15:54:00
11:54 AM,46.0,23.0,40,29.95,10.0,West,13.8,23.0,N/A,,Clear,260,2013-01-31 16:54:00
12:54 PM,46.9,23.0,39,29.94,10.0,NW,10.4,23.0,N/A,,Clear,310,2013-01-31 17:54:00
1:54 PM,48.0,23.0,37,29.94,10.0,West,16.1,23.0,N/A,,Clear,270,2013-01-31 18:54:00
2:54 PM,48.9,21.9,35,29.95,10.0,West,15.0,24.2,N/A,,Partly Cloudy,270,2013-01-31 19:54:00
3:54 PM,50.0,21.0,32,29.97,10.0,West,15.0,25.3,N/A,,Clear,260,2013-01-31 20:54:00
4:54 PM,50.0,21.0,32,29.98,10.0,West,11.5,18.4,N/A,,Clear,280,2013-01-31 21:54:00
5:54 PM,46.0,21.0,37,30.01,10.0,NNW,4.6,-,N/A,,Clear,330,2013-01-31 22:54:00
6:54 PM,44.1,19.9,38,30.03,10.0,West,3.5,-,N/A,,Clear,280,2013-01-31 23:54:00
7:54 PM,34.0,25.0,70,30.06,10.0,SSW,8.1,-,N/A,,Clear,200,2013-02-01 00:54:00
8:54 PM,35.1,25.0,67,30.05,10.0,SW,8.1,-,N/A,,Clear,220,2013-02-01 01:54:00
9:54 PM,39.9,21.9,49,30.06,10.0,WSW,5.8,-,N/A,,Clear,240,2013-02-01 02:54:00
10:54 PM,39.0,23.0,53,30.06,10.0,SW,11.5,-,N/A,,Clear,230,2013-02-01 03:54:00
11:54 PM,39.9,23.0,51,30.07,10.0,SW,11.5,18.4,N/A,,Clear,230,2013-02-01 04:54:00